SCP
0 0 0 0 0 0 -0 -0 -0 0 0 -0 0 0 1 3 3 2 2 1 1 0
0 0 0 0 0 0 0 0 0 -0 -0 1 1 0 1 2 2 3 2 2 1 1
0 0 0 0 0 0 0 0 0 0 -0 -0 1 0 0 0 1 2 3 2 2 2
0 0 0 0 0 0 0 0 0 0 0 0 1 0 0 0 0 1 1 2 2 2
0 0 0 0 0 0 0 0 0 0 0 0 1 1 1 0 0 1 1 2 3 3
0 0 0 0 -0 -0 -0 -0 0 0 0 0 1 1 1 1 1 1 1 1 2 3
0 0 0 -0 -0 -0 -0 -0 0 0 0 0 0 0 0 1 1 1 1 2 2 2
0 -0 -0 -0 -0 -0 0 0 0 0 0 0 -0 0 0 0 0 0 1 2 2 2
-0 -0 -0 -0 0 0 0 0 0 0 0 0 0 0 0 0 0 0 0 1 2 1
-0 -0 -0 0 0 0 0 0 0 0 0 0 1 0 0 0 0 0 0 0 0 0
-0 -0 0 0 0 0 0 0 0 0 0 0 0 0 0 0 0 -0 0 0 0 0
0 0 0 0 0 0 0 0 0 0 0 0 0 0 0 0 0 0 0 0 0 0
0 0 0 0 0 0 0 0 0 0 0 0 0 0 0 0 0 0 0 0 0 0
0 0 0 0 0 0 0 0 0 0 0 0 0 0 0 0 0 0 0 0 0 0
Wind_Speed_500mb
60 60 59 54 51 60 64 63 60 59 53 42 48 75 77 66 59 50 53 51 47 52
55 52 51 59 67 64 64 61 62 67 66 55 36 71 54 67 62 63 57 54 51 51
59 61 59 61 63 66 68 69 67 73 71 63 48 42 69 62 62 64 61 55 51 47
52 53 63 67 69 68 67 70 73 71 70 57 50 53 52 61 75 60 58 59 54 53
55 56 61 61 63 62 63 68 73 67 64 54 56 56 61 65 68 61 64 65 62 56
62 71 77 75 73 79 79 73 66 64 66 58 54 58 60 72 75 70 69 67 58 54
67 73 80 79 78 77 65 63 60 65 62 64 62 65 69 73 73 69 71 59 55 51
73 74 73 71 72 59 57 55 57 62 66 64 64 63 59 61 54 54 57 60 51 47
69 69 68 68 62 53 51 50 54 66 66 62 49 52 54 61 63 59 54 59 48 36
64 64 69 63 55 50 51 47 58 60 54 45 32 40 45 52 32 53 68 31 29 34
64 68 62 54 45 53 46 48 52 41 40 30 32 24 23 17 32 31 51 38 39 47
60 60 56 45 47 43 41 33 30 35 32 24 22 2 27 18 33 40 41 40 46 35
54 55 48 39 39 29 29 30 28 29 23 16 20 31 23 18 24 35 40 36 30 40
49 42 32 29 29 35 18 19 17 16 18 18 22 23 13 10 16 18 26 28 42 49
Wind_Direction_500mb
305 304 303 302 292 280 280 281 276 267 285 284 241 247 239 231 226 220 227 228 226 225
303 302 295 293 295 295 292 283 277 266 264 276 264 244 254 241 227 222 226 228 227 227
297 297 298 294 291 292 289 289 279 269 264 273 275 255 250 242 233 223 222 227 229 234
297 296 293 293 293 289 287 289 286 277 270 270 274 264 235 241 236 228 226 225 228 234
298 302 298 294 293 290 285 284 287 280 275 260 268 258 247 242 241 228 229 225 223 222
292 289 290 287 286 282 275 278 283 279 276 255 262 259 250 243 239 228 226 227 223 227
289 287 286 287 284 284 280 273 282 275 270 249 251 251 241 246 243 231 223 221 222 224
291 291 290 290 289 284 280 274 282 276 264 254 255 261 254 249 237 241 228 223 224 229
289 291 292 294 291 285 279 277 280 279 271 261 270 258 253 255 266 259 254 219 216 215
289 286 294 291 287 288 279 282 280 283 271 261 264 254 251 238 220 251 257 219 227 235
287 289 288 285 283 284 285 289 288 282 268 251 247 244 240 204 188 206 227 223 237 239
282 284 279 273 286 281 294 281 281 276 272 245 246 242 237 215 212 220 232 226 227 231
281 273 268 270 272 281 268 279 279 263 272 231 200 201 210 200 202 204 208 208 209 220
269 266 268 270 278 289 287 287 282 253 233 206 193 201 203 168 147 171 182 184 192 188
Wind_Speed_850mb
60 60 59 54 51 60 64 63 60 59 53 42 48 75 77 66 59 50 53 51 47 52
55 52 51 59 67 64 64 61 62 67 66 55 36 71 54 67 62 63 57 54 51 51
59 61 59 61 63 66 68 69 67 73 71 63 48 42 69 62 62 64 61 55 51 47
52 53 63 67 69 68 67 70 73 71 70 57 50 53 52 61 75 60 58 59 54 53
55 56 61 61 63 62 63 68 73 67 64 54 56 56 61 65 68 61 64 65 62 56
62 71 77 75 73 79 79 73 66 64 66 58 54 58 60 72 75 70 69 67 58 54
67 73 80 79 78 77 65 63 60 65 62 64 62 65 69 73 73 69 71 59 55 51
73 74 73 71 72 59 57 55 57 62 66 64 64 63 59 61 54 54 57 60 51 47
69 69 68 68 62 53 51 50 54 66 66 62 49 52 54 61 63 59 54 59 48 36
64 64 69 63 55 50 51 47 58 60 54 45 32 40 45 52 32 53 68 31 29 34
64 68 62 54 45 53 46 48 52 41 40 30 32 24 23 17 32 31 51 38 39 47
60 60 56 45 47 43 41 33 30 35 32 24 22 2 27 18 33 40 41 40 46 35
54 55 48 39 39 29 29 30 28 29 23 16 20 31 23 18 24 35 40 36 30 40
49 42 32 29 29 35 18 19 17 16 18 18 22 23 13 10 16 18 26 28 42 49
Wind_Direction_850mb
305 304 303 302 292 280 280 281 276 267 285 284 241 247 239 231 226 220 227 228 226 225
303 302 295 293 295 295 292 283 277 266 264 276 264 244 254 241 227 222 226 228 227 227
297 297 298 294 291 292 289 289 279 269 264 273 275 255 250 242 233 223 222 227 229 234
297 296 293 293 293 289 287 289 286 277 270 270 274 264 235 241 236 228 226 225 228 234
298 302 298 294 293 290 285 284 287 280 275 260 268 258 247 242 241 228 229 225 223 222
292 289 290 287 286 282 275 278 283 279 276 255 262 259 250 243 239 228 226 227 223 227
289 287 286 287 284 284 280 273 282 275 270 249 251 251 241 246 243 231 223 221 222 224
291 291 290 290 289 284 280 274 282 276 264 254 255 261 254 249 237 241 228 223 224 229
289 291 292 294 291 285 279 277 280 279 271 261 270 258 253 255 266 259 254 219 216 215
289 286 294 291 287 288 279 282 280 283 271 261 264 254 251 238 220 251 257 219 227 235
287 289 288 285 283 284 285 289 288 282 268 251 247 244 240 204 188 206 227 223 237 239
282 284 279 273 286 281 294 281 281 276 272 245 246 242 237 215 212 220 232 226 227 231
281 273 268 270 272 281 268 279 279 263 272 231 200 201 210 200 202 204 208 208 209 220
269 266 268 270 278 289 287 287 282 253 233 206 193 201 203 168 147 171 182 184 192 188